FW1843 Weather Reports


Display with metric or nautical units.
time (UTC)temp
F
wind
direction
speed
MPH
gust
MPH
rain 1hr
in
rain 24hr
in
rain mn
in
humidity
%
barometer
mb
20260508163016 61 261 7.0 13.0 0.00 0.00 0.00 54 1011.7
20260508161513 60 224 8.0 13.0 0.00 0.00 0.00 54 1011.9
20260508160027 59 261 5.0 15.0 0.00 0.00 0.00 55 1012.0
20260508154506 59 360 7.0 11.0 0.00 0.00 0.00 56 1011.9
20260508153002 58 223 6.0 10.0 0.00 0.00 0.00 57 1012.2
20260508151606 57 360 4.0 10.0 0.00 0.00 0.00 62 1012.3
20260508150053 55 167 5.0 8.0 0.00 0.00 0.00 64 1012.3
20260508144548 54 165 5.0 8.0 0.00 0.00 0.00 68 1012.4
20260508143043 53 168 3.0 8.0 0.00 0.01 0.00 70 1012.5
20260508141549 52 360 4.0 8.0 0.00 0.01 0.00 70 1012.6
20260508140044 51 360 4.0 6.0 0.00 0.01 0.00 70 1012.6
20260508134535 51 360 4.0 6.0 0.00 0.01 0.00 70 1012.7
20260508133035 50 360 4.0 9.0 0.00 0.02 0.00 71 1012.7
20260508131532 50 360 5.0 11.0 0.00 0.02 0.00 73 1012.8
20260508130030 48 360 6.0 9.0 0.00 0.02 0.00 74 1012.5
20260508124527 47 360 5.0 11.0 0.00 0.02 0.00 75 1012.4
20260508123029 47 360 6.0 10.0 0.00 0.03 0.00 75 1012.3
20260508121525 47 360 4.0 8.0 0.00 0.03 0.00 75 1012.3
20260508120034 47 360 4.0 6.0 0.00 0.03 0.00 75 1012.4
20260508114520 47 360 5.0 8.0 0.00 0.03 0.00 75 1012.4
20260508113018 48 360 5.0 8.0 0.00 0.04 0.00 75 1012.5
20260508111517 48 360 3.0 5.0 0.00 0.04 0.00 75 1012.4
20260508110016 48 360 4.0 5.0 0.00 0.04 0.00 75 1012.4
20260508104512 48 360 3.0 6.0 0.00 0.04 0.00 75 1012.3
20260508103025 48 360 3.0 4.0 0.00 0.04 0.00 74 1012.3
20260508101516 48 360 4.0 6.0 0.00 0.04 0.00 74 1012.4
20260508100009 48 360 3.0 6.0 0.00 0.04 0.00 74 1012.4
20260508094505 48 193 4.0 6.0 0.00 0.04 0.00 75 1012.4
20260508093004 48 360 3.0 6.0 0.00 0.04 0.00 74 1012.4
20260508091501 48 360 7.0 9.0 0.00 0.04 0.00 73 1012.6
20260508090118 49 360 5.0 6.0 0.00 0.04 0.00 73 1012.8
20260508084600 49 360 4.0 6.0 0.00 0.04 0.00 72 1012.9
20260508083028 49 360 4.0 8.0 0.00 0.04 0.00 71 1013.0
20260508081525 49 360 1.0 3.0 0.00 0.04 0.00 71 1012.7
20260508080022 49 247 2.0 3.0 0.00 0.04 0.00 70 1012.7
20260508074521 49 360 3.0 5.0 0.00 0.04 0.00 71 1012.7
20260508073027 49 360 3.0 5.0 0.00 0.04 0.00 70 1012.7
20260508071523 49 360 4.0 5.0 0.00 0.04 0.00 69 1012.6
20260508070016 49 360 4.0 6.0 0.00 0.04 0.00 70 1012.8
20260508064524 50 360 5.0 10.0 0.00 0.04 0.00 68 1012.8
20260508063016 50 360 9.0 13.0 0.00 0.04 0.04 66 1012.8
20260508061517 50 360 7.0 15.0 0.00 0.04 0.04 68 1012.8
20260508060005 50 245 6.0 12.0 0.00 0.04 0.04 69 1012.9
20260508054504 50 360 3.0 6.0 0.00 0.04 0.04 67 1012.8
20260508053003 51 119 3.0 7.0 0.00 0.04 0.04 66 1012.4
20260508051501 51 120 3.0 7.0 0.00 0.04 0.04 65 1012.4
20260508044603 52 360 4.0 8.0 0.00 0.04 0.04 62 1012.4
20260508043102 53 360 2.0 5.0 0.00 0.04 0.04 59 1012.5
20260508041559 54 360 2.0 4.0 0.00 0.04 0.04 57 1012.6
20260508040056 55 360 2.0 6.0 0.00 0.04 0.04 56 1012.3
20260508034557 56 360 3.0 6.0 0.00 0.04 0.04 54 1012.2
20260508033050 55 117 2.0 9.0 0.00 0.04 0.04 55 1012.0
20260508031548 54 360 6.0 9.0 0.00 0.04 0.04 59 1011.7
20260508030047 55 360 3.0 10.0 0.00 0.04 0.04 59 1011.6
20260508024549 54 360 2.0 9.0 0.00 0.04 0.04 62 1011.5
20260508023043 53 360 3.0 6.0 0.00 0.04 0.04 64 1011.2
20260508021545 54 360 4.0 9.0 0.00 0.04 0.04 65 1011.1
20260508020041 54 109 5.0 9.0 0.00 0.04 0.04 64 1011.1
20260508014548 55 360 9.0 12.0 0.00 0.04 0.04 63 1010.9
20260508013043 57 360 8.0 10.0 0.00 0.04 0.04 59 1010.8
20260508011542 57 360 11.0 16.0 0.00 0.04 0.04 56 1010.7
20260508010036 56 360 12.0 19.0 0.00 0.04 0.04 60 1010.5
20260508004535 58 360 10.0 17.0 0.00 0.04 0.04 56 1010.5
20260508003052 63 265 10.0 18.0 0.00 0.04 0.04 48 1009.8
20260508001532 63 360 13.0 18.0 0.00 0.04 0.04 48 1009.8
20260508000032 63 252 12.0 18.0 0.00 0.04 0.04 49 1009.9
20260507234531 63 250 5.0 12.0 0.00 0.04 0.04 49 1009.9
20260507233033 62 232 6.0 15.0 0.00 0.04 0.04 50 1010.0
20260507231530 62 360 9.0 16.0 0.00 0.04 0.04 49 1010.0
20260507230028 63 360 7.0 19.0 0.00 0.04 0.04 46 1009.9
20260507224524 63 246 8.0 15.0 0.00 0.04 0.04 48 1010.1
20260507223021 63 273 10.0 16.0 0.00 0.04 0.04 46 1010.1
20260507221518 62 360 10.0 16.0 0.00 0.04 0.04 47 1010.4
20260507220017 62 292 10.0 18.0 0.00 0.04 0.04 48 1010.5
20260507214516 61 279 9.0 17.0 0.00 0.04 0.04 48 1010.7
20260507213046 61 279 9.0 16.0 0.00 0.04 0.04 48 1010.8
20260507211559 61 273 5.0 16.0 0.00 0.04 0.04 50 1011.0
20260507210041 60 360 9.0 16.0 0.00 0.04 0.04 51 1011.1
20260507204537 59 360 9.0 14.0 0.00 0.04 0.04 52 1011.1
20260507203036 59 360 6.0 13.0 0.00 0.04 0.04 51 1011.2
20260507201535 59 298 9.0 13.0 0.00 0.04 0.04 50 1011.1
20260507200032 59 360 5.0 12.0 0.00 0.04 0.04 50 1011.0
20260507194536 59 253 4.0 12.0 0.00 0.04 0.04 51 1010.9
20260507193034 58 360 5.0 11.0 0.00 0.04 0.04 52 1011.0
20260507191527 57 360 5.0 10.0 0.00 0.04 0.04 51 1011.1
20260507190023 57 360 3.0 10.0 0.00 0.04 0.04 53 1011.2
20260507184521 57 360 3.0 6.0 0.00 0.04 0.04 55 1011.2
20260507183021 56 332 5.0 9.0 0.00 0.04 0.04 58 1011.4
20260507181518 56 360 6.0 13.0 0.00 0.04 0.04 58 1011.6
20260507180018 56 360 7.0 13.0 0.00 0.04 0.04 61 1011.7
20260507174516 56 360 7.0 13.0 0.00 0.04 0.04 60 1011.4
20260507173014 56 360 6.0 12.0 0.00 0.04 0.04 62 1011.4
20260507171512 56 360 8.0 12.0 0.00 0.04 0.04 64 1011.6
20260507170011 55 360 5.0 10.0 0.00 0.04 0.04 64 1011.4
20260507164509 55 321 6.0 11.0 0.00 0.04 0.04 65 1011.4